Regional Weather Roundup
Issued by NWS Upton, NY

Home | Current Version | Previous Version | Text Only | Print | Product List | Glossary On
Versions: 1 2 3 4 5 6 7 8 9 10 11 12 13 14 15 16 17 18 19 20 21 22 23 24 25 26 27 28 29 30 31 32 33 34 35 36 37 38 39 40 41 42 43 44 45 46 47 48 49 50
709
ASUS41 KOKX 181308
RWROKX

Regional Weather Roundup
National Weather Service New York NY
800 AM EST MON DEC 18 2017

Note: "FAIR" indicates few or no clouds below 12,000 feet with no
significant weather and/or obstructions to visibility.

NYZ071-072-176-178-NJZ106-104-181400-
New York City Metro Area

CITY           SKY/WX    TMP DP  RH WIND       PRES   REMARKS
Central Park   CLOUDY    36  32  85 NE3       30.14F
Bronx Bot Gard   N/A     34  30  86 CALM      30.13F
Bronx Lehman C   N/A     34  32  93 E5          N/A  WCI  30
LaGuardia Arpt CLOUDY    37  31  78 NE8       30.12F WCI  31
Queens College   N/A     34  32  93 NE6         N/A  WCI  29
Kennedy Intl   CLOUDY    36  34  92 NE8       30.12F WCI  30
Breezy Point     N/A     36 N/A N/A NE9         N/A  WCI  29
Brooklyn Coll    N/A     37  32  81 N6          N/A  WCI  33
Staten Island    N/A     34  32  93 N3          N/A
Newark/Liberty CLOUDY    34  30  85 N8        30.12F WCI  27
Teterboro      CLOUDY    34  27  75 N6        30.12F WCI  29
$$

NYZ177-179-078>081-181400-
Long Island New York

CITY           SKY/WX    TMP DP  RH WIND       PRES   REMARKS
Jones Beach      N/A     36 N/A N/A NE9         N/A  WCI  29
Wantagh          N/A     34  32  93 NE5         N/A  WCI  30
Matinecock Pt    N/A     36 N/A N/A E8          N/A  WCI  29
Farmingdale    CLOUDY    34  30  85 NE7       30.12F WCI  28
MacArthur/ISP  CLOUDY    34  28  79 N6        30.12F WCI  29
Shirley        CLOUDY    34  25  69 N3        30.13F
Mt Sinai Harb    N/A    N/A N/A N/A E5          N/A
Westhampton    CLOUDY    36  26  67 NE3       30.14F
East Hampton   CLOUDY    32  26  78 CALM      30.14F
Southold         N/A     36  28  75 E5          N/A  WCI  32
Montauk          N/A     40  29  64 E3        30.16F
$$

NYZ052-065-067-181400-
Hudson Valley

CITY           SKY/WX    TMP DP  RH WIND       PRES   REMARKS
White Plains   CLOUDY    31  26  82 E5        30.10F WCI  26
Larchmont Harb   N/A     32 N/A N/A N7          N/A  WCI  26
Croton On Huds   N/A     32 N/A N/A CALM        N/A
Somers           N/A     30  25  80 N1          N/A
Brewster         N/A     28  23  80 N1          N/A
Newburgh       CLOUDY    28  23  80 CALM      30.13S
Montgomery     CLOUDY    28  20  71 S3        30.11F
Otisville        N/A     28  21  74 SE1         N/A
Warwick          N/A     28  21  74 SW1         N/A
Suffern          N/A     32  27  80 N2          N/A
Poughkeepsie   CLOUDY    28  20  71 SE3       30.13F
Albany         CLOUDY    21  12  68 CALM      30.12F
$$

NJZ001-105-106-008-010-013-015-019>022-104-181400-
New Jersey

CITY           SKY/WX    TMP DP  RH WIND       PRES   REMARKS
Newark/Liberty CLOUDY    34  30  85 N8        30.12F WCI  27
Teterboro      CLOUDY    34  27  75 N6        30.12F WCI  29
Caldwell       CLOUDY    33  26  75 CALM      30.13F
Somerville     CLOUDY    34  28  79 CALM      30.11S
Linden         CLOUDY    35  29  80 CALM      30.12F
Perth Amboy      N/A     36 N/A N/A N5          N/A  WCI  32
Sussex         CLOUDY    29  21  72 E3        30.12S
Andover        NOT AVBL
Trenton        CLOUDY    35  32  88 N6        30.11R FOG     WCI  30
Millville      MOCLDY    37  36  96 CALM      30.10F
Atlantic City  CLOUDY    39  37  92 W6        30.10S WCI  35
Wrightstown    CLOUDY    37  34  91 NE3       30.07F
Toms River     CLOUDY    39  38  96 CALM      30.10F
Belmar         CLOUDY    39  39 100 NW5       30.10F FOG
$$

PAZ047>061-062-071-181400-
Eastern Pennsylvania

CITY           SKY/WX    TMP DP  RH WIND       PRES   REMARKS
Philadelphia   MOCLDY    37  34  89 N6        30.12S WCI  32
Allentown      CLOUDY    35  28  75 CALM      30.11F
Scranton       CLOUDY    33  30  88 CALM      30.06F FOG
$$

CTZ002-004>006-009-010-012-RIZ004-006-007-MAZ004-011-015-181400-
Southern New England

 In CT

CITY           SKY/WX    TMP DP  RH WIND       PRES   REMARKS
Bradley Intl   CLOUDY    26  16  65 N5        30.16F WCI  20
Hartford       CLOUDY    29  15  56 CALM      30.16F
Danbury        CLOUDY    29  22  75 NE3       30.12F
Wtrbury/Oxford CLOUDY    27  19  72 CALM      30.10F
Norwalk Harbor   N/A    N/A N/A N/A NE8         N/A
Bridgeport     NOT AVBL
Meriden        CLOUDY    28  14  55 CALM      30.14F
New Haven      CLOUDY    31  19  61 CALM      30.14F
Chester        PTSUNNY   28  14  54 CALM      30.13F
Groton         CLOUDY    31  19  61 CALM      30.15F
Willimantic    CLOUDY    28  17  63 CALM      30.16F

 In RI

CITY           SKY/WX    TMP DP  RH WIND       PRES   REMARKS
Providence     CLOUDY    28  16  60 NE3       30.18F
Block Island   CLOUDY    38  28  67 SE8       30.16F WCI  32
Westerly       CLOUDY    30  17  58 N5        30.17F WCI  25

In MA

CITY           SKY/WX    TMP DP  RH WIND       PRES   REMARKS
Boston         CLOUDY    27  12  53 CALM      30.19F
Worcester      CLOUDY    21   9  59 S3        30.11F
Westfield      CLOUDY    24  13  62 CALM      30.15F
Provincetown   CLOUDY    28  20  71 CALM      30.20S
Nantucket      CLOUDY    31  24  75 CALM      30.20R
$$

ANZ330-335-338-340-345-350-353-355-181400-
Coastal Marine Observations


STATION/POSITION TIME  SKY/WX   TEMP    WIND        PRES    VSBY  WAVE
                                AIR SEA DIR/SP/G                  HT/PER
                 (UTC)          (F)     (DEG/KT/KT) (MB)    (MI)  (FT/S)
NY Harb Entrance 1150            46 51   90/ 14/ 14 1019.2          2/ 4
20 S Fire Island 1150            46 51  100/ 14/ 14 1019.6          2/ 4
15 E Barnegat Li 1230               49                N/A           2/ 9
Hudson Canyon    1250            53 54  160/ 10/ 12 1018.3          2/ 4
Kings Point      1230            34 42   80/  4/  5 1021.3
Execution Rocks  1230            36      90/ 10/ 12   N/A
Western LI Sound NOT AVBL
Central LI Sound 1215            38      90/ 10/ 12   N/A           1
Robbins Reef     1248            36     350/  5/  7 1020.4
$$


>>>>>>>>>>>>>>>>>>>>>>>>>>>> KEY <<<<<<<<<<<<<<<<<<<<<<<<<<<
>                                                          <
>     SKY/WX - Sky Condition/Present Weather               <
>     TMP    - Temperature in Fahrenheit                   <
>     DP     - Dew Point in Fahrenheit                     <
>     RH     - Relative Humidity in Percent                <
>     WIND   - Direction (from) and Speed in MPH           <
>     PRES   - Mean Sea Level Pressure (inches of Hg)      <
>     WCI    - Wind Chill Index                            <
>     VSB    - Visibility in Miles                         <
>     HX     - Heat Index                                  <
>     TC     - Temperature in Celsius                      <
>     VRB    - Varibale Wind Direction                     <
>                                                          <
>>>>>>>>>>>>>>>>>>>>>>>>>>>> KEY <<<<<<<<<<<<<<<<<<<<<<<<<<<




USA.gov is the U.S. government's official web portal to all federal, state and local government web resources and services.